Location: Buckenweiler
(49.0667°N, 10.2500°E)
Time: 23:28:20
(UTC+00:00)

Cosmos 2218 Rocket - Pass Details

Date: 18 January 2026
Orbit: 955 x 1005 km, 82.9° (Epoch: 15 February)

Event Time Altitude Azimuth Distance (km) Brightness Sun altitude
Rises 06:00:52 0° 190° (S) 3,673 7.1 -10.4°
Reaches altitude 10° 06:03:22 10° 192° (SSW) 2,736 6.5 -10.0°
Maximum altitude 06:09:40 80° 279° (W) 1,014 4.0 -9.1°
Drops below altitude 10° 06:16:05 10° 8° (N) 2,784 6.3 -8.1°
Sets 06:18:38 0° 9° (N) 3,741 6.9 -7.7°
